Location: Cassano d�Adda
(45.5333°N, 9.5167°E)
Time: 19:19:49
(UTC+00:00)

NOSS 7 (D) - Pass Details

Date: 08 December 2019
Orbit: 325 x 774 km, 63.3° (Epoch: 18 January)

Event Time Altitude Azimuth Distance (km) Brightness Sun altitude
Rises 17:21:50 0° 322° (NW) 2,181 8.2 -17.4°
Reaches altitude 10° 17:23:43 10° 323° (NW) 1,376 7.1 -17.7°
Maximum altitude 17:26:44 81° 50° (NE) 411 4.0 -18.2°
Enters shadow 17:27:28 50° 131° (SE) 528 4.4 -18.3°
